Location: Kuffner-Sternwarte
(48.2130°N, 16.2960°E)
Time: 15:50:37
(UTC+02:00)

COROT - Pass Details

Date: 10 May 2026
Orbit: 594 x 855 km, 90.1° (Epoch: 21 May)

Event Time Altitude Azimuth Distance (km) Brightness Sun altitude
Rises 22:23:19 0° 15° (NNE) 3,386 9.9 -16.2°
Reaches altitude 10° 22:26:55 10° 39° (NE) 2,406 8.8 -16.6°
Maximum altitude 22:29:51 15° 72° (ENE) 2,047 8.0 -16.8°
Enters shadow 22:31:31 13° 93° (E) 2,131 7.9 -17.0°
